Simultaneous Nadir Overpasses (SNOs) Predictions

Prediction of SNOs between AQUA and GOES-15 Satellite Orbit:

Table of predicted SNOs for the next 14.0 days since TLE Epoch: 12/10/2021
Index Date Time (AQUA) AQUA Lat,Lon GOES-15 Lat,Lon Distance(km) Time Diff (sec)
1 12/10/2021 22:10:42 -0.17,-128.66 0.01,-127.91 86.10 80
2 12/12/2021 21:58:33 0.45,-125.71 0.01,-127.84 242.38 80
3 12/13/2021 10:19:49 0.64,-130.86 -0.03,-127.82 346.96 80
4 12/15/2021 10:07:40 0.01,-127.91 -0.02,-127.75 18.85 80
5 12/17/2021 09:55:31 -0.62,-124.96 -0.02,-127.67 308.70 80
6 12/17/2021 22:16:56 -0.48,-130.16 0.03,-127.65 283.93 80
7 12/19/2021 22:04:46 0.11,-127.19 0.02,-127.57 42.88 80
8 12/21/2021 21:52:36 0.70,-124.23 0.02,-127.48 369.19 80
9 12/22/2021 10:13:52 0.39,-129.39 -0.03,-127.46 220.34 80
10 12/24/2021 10:01:43 -0.26,-126.44 -0.03,-127.36 105.47 80
